Regional Weather Roundup
Issued by NWS Goodland, KS

Home | Current Version | Previous Version | Text Only | Print | Product List | Glossary Off
Versions: 1 2 3 4 5 6 7 8 9 10 11 12 13 14 15 16 17 18 19 20 21 22 23 24 25 26 27 28 29 30 31 32 33 34 35 36 37 38 39 40 41 42 43 44 45 46 47 48 49 50

000
ASUS43 KGLD 260808
RWRGLD

GOODLAND FORECAST AREA HOURLY WEATHER ROUNDUP
NATIONAL WEATHER SERVICE GOODLAND KS
200 AM MDT THU MAY 26 2016

...OFFICIAL OBSERVATIONS...

CITY           SKY/WX    TMP DP  RH WIND       PRES   REMARKS
GOODLAND KS    PTCLDY    49  47  93 N6        29.92F
HILL CITY KS   CLEAR     53  50  89 E3        29.88F
IMPERIAL NEB   CLEAR     52  48  86 W5        29.92S
MCCOOK NEB     CLEAR     52  49  89 W7        29.89R
AKRON CO       CLEAR     52  40  63 E9        29.97F
BURLINGTON CO  CLOUDY    54  46  74 N9        29.95S
LIMON CO       CLOUDY    48  41  76 NE12      29.99R
$$

...UNOFFICIAL OBSERVATIONS...

CITY           SKY/WX    TMP DP  RH WIND       PRES   REMARKS
GOVE KS          N/A     53  32  45 MISG        N/A
LENORA KS        N/A     53  32  45 MISG        N/A
SHARON SPRINGS   N/A     55  52  91 NE7         N/A
KIT CARSON CO    N/A     55  47  74 MISG        N/A
YUMA CO          N/A     51  46  82 CALM        N/A
$$




USA.gov is the U.S. government's official web portal to all federal, state and local government web resources and services.